Weather History for KUES - June, 2013

Change the Weather History Date:

Saturday, June 29, 2013

  Actual Average (KMKE) Record (KMKE)
Temperature  
Mean Temperature 66 °F 70 °F  
Max Temperature 71 °F 79 °F 100 °F (1931)
Min Temperature 60 °F 62 °F 46 °F (1943)
Degree Days  
Heating Degree Days 0 1  
Month to date heating degree days 83  
Since 1 June heating degree days 83  
Since 1 July heating degree days 6893  
Cooling Degree Days 0 6  
Month to date cooling degree days 113  
Year to date cooling degree days 143  
Since 1 June cooling degree days 113  
Growing Degree Days 16 (Base 50)    
Moisture  
Dew Point 58 °F    
Average Humidity 85    
Maximum Humidity 100    
Minimum Humidity 53    
Precipitation  
Precipitation 0.00 in 0.13 in 2.34 in (1969)
Month to date precipitation 3.77  
Year to date precipitation 16.41  
Snow  
Snow 0.00 in 0.00 in 0.00 in ()
Month to date snowfall 0.0  
Since 1 June snowfall 0.0  
Since 1 July snowfall 46.9  
Snow Depth -    
Sea Level Pressure  
Sea Level Pressure 29.71 in    
Wind  
Wind Speed 5 mph (NNE)    
Max Wind Speed 17 mph    
Max Gust Speed 23 mph    
Visibility 9 miles    
Events Rain    
T = Trace of Precipitation, MM = Missing Value Source: NWS Daily Summary

Daily Weather History Graph

Daily Weather History Graph

Search for Another Location

Airport or City:

Trip Planner

Search our weather history database for the weather conditions in past years. The results will help you decide how hot, cold, wet, or windy it might be!

Date:

Astronomy

Jun. 29, 2013 Rise Set
Actual Time 5:16 AM CDT 8:36 PM CDT
Civil Twilight 4:41 AM CDT 9:11 PM CDT
Nautical Twilight 3:55 AM CDT 9:57 PM CDT
Astronomical Twilight 2:58 AM CDT 10:53 PM CDT
Moon No Moon Rise 12:39 PM CDT (6/29)
Length of Visible Light 16h 30m
Length of Day
15h 19m
Waning Gibbous, 55% of the Moon is Illuminated
Jun 29
Waning Gibbous
Jun 29
Last Quarter
Jul 8
New
Jul 15
First Quarter
Jul 22
Full

Hourly Weather History & Observations

Time (CDT) Temp. Dew Point Humidity Pressure Visibility Wind Dir Wind Speed Gust Speed Precip Events Conditions
12:15 AM 60.8 °F 60.8 °F 100% 29.65 in 10.0 mi Calm Calm - N/A   Overcast
12:35 AM 60.8 °F 60.8 °F 100% 29.65 in 10.0 mi Calm Calm - N/A   Overcast
12:55 AM 60.8 °F 60.8 °F 100% 29.65 in 10.0 mi Calm Calm - N/A   Overcast
1:15 AM 60.8 °F 60.8 °F 100% 29.65 in 10.0 mi NNW 3.5 mph - N/A   Overcast
1:35 AM 60.8 °F 60.8 °F 100% 29.64 in 10.0 mi NNW 3.5 mph - N/A   Overcast
1:55 AM 60.8 °F 60.8 °F 100% 29.64 in 10.0 mi North 3.5 mph - N/A   Overcast
2:15 AM 60.8 °F 60.8 °F 100% 29.64 in 10.0 mi NNW 3.5 mph - N/A   Overcast
2:35 AM 60.8 °F 60.8 °F 100% 29.64 in 10.0 mi North 4.6 mph - N/A   Overcast
2:55 AM 60.8 °F 60.8 °F 100% 29.64 in 10.0 mi North 3.5 mph - N/A   Overcast
3:15 AM 60.8 °F 60.8 °F 100% 29.64 in 10.0 mi North 3.5 mph - N/A   Overcast
3:35 AM 60.8 °F 60.8 °F 100% 29.63 in 10.0 mi North 5.8 mph - N/A Rain Light Rain
3:55 AM 60.8 °F 60.8 °F 100% 29.64 in 10.0 mi North 6.9 mph - N/A   Overcast
4:15 AM 60.8 °F 60.8 °F 100% 29.64 in 10.0 mi North 3.5 mph - N/A   Overcast
4:35 AM 60.8 °F 60.8 °F 100% 29.65 in 10.0 mi North 4.6 mph - N/A   Overcast
4:55 AM 60.8 °F 60.8 °F 100% 29.65 in 10.0 mi North 4.6 mph - N/A   Overcast
5:15 AM 60.8 °F 60.8 °F 100% 29.66 in 7.0 mi NE 5.8 mph - N/A   Overcast
5:35 AM 60.8 °F 60.8 °F 100% 29.66 in 10.0 mi NE 6.9 mph - N/A   Overcast
5:45 AM 62.6 °F 60.8 °F 94% 29.66 in 10.0 mi NNE 5.8 mph - N/A   Overcast
6:45 AM 62.6 °F 60.8 °F 94% 29.66 in 7.0 mi NNE 5.8 mph - N/A   Overcast
7:45 AM 60.8 °F 60.8 °F 100% 29.67 in 7.0 mi NNE 9.2 mph - N/A   Drizzle
8:45 AM 60.8 °F 60.8 °F 100% 29.69 in 4.0 mi NNE 9.2 mph - N/A Rain Light Rain
9:45 AM 60.8 °F 60.8 °F 100% 29.70 in 4.0 mi NNE 8.1 mph - N/A Rain Light Rain
10:45 AM 62.6 °F 60.8 °F 94% 29.70 in 5.0 mi NNE 9.2 mph - N/A Rain Light Rain
11:45 AM 62.6 °F 60.8 °F 94% 29.72 in 7.0 mi East 9.2 mph - N/A   Overcast
12:45 PM 64.4 °F 57.2 °F 77% 29.72 in 10.0 mi NE 9.2 mph - N/A   Mostly Cloudy
1:45 PM 69.8 °F 55.4 °F 60% 29.72 in 10.0 mi North 9.2 mph - N/A   Scattered Clouds
2:45 PM 69.8 °F 53.6 °F 56% 29.73 in 10.0 mi NNE 13.8 mph - N/A   Scattered Clouds
3:45 PM 71.6 °F 53.6 °F 53% 29.74 in 10.0 mi NNE 17.3 mph 23.0 mph N/A   Scattered Clouds
4:45 PM 71.6 °F 53.6 °F 53% 29.74 in 10.0 mi NE 17.3 mph 21.9 mph N/A   Scattered Clouds
5:45 PM 69.8 °F 53.6 °F 56% 29.75 in 10.0 mi NNE 12.7 mph 20.7 mph N/A   Mostly Cloudy
6:45 PM 68.0 °F 55.4 °F 64% 29.78 in 10.0 mi NE 11.5 mph 20.7 mph N/A   Mostly Cloudy
7:45 PM 66.2 °F 55.4 °F 68% 29.79 in 10.0 mi NNE 6.9 mph - N/A   Scattered Clouds
8:45 PM 64.4 °F 53.6 °F 68% 29.80 in 10.0 mi NNE 9.2 mph - N/A   Scattered Clouds
9:15 PM 62.6 °F 53.6 °F 72% 29.81 in 10.0 mi NNE 11.5 mph - N/A   Clear
9:35 PM 62.6 °F 53.6 °F 72% 29.81 in 10.0 mi NNE 12.7 mph 16.1 mph N/A   Scattered Clouds
9:55 PM 62.6 °F 53.6 °F 72% 29.82 in 10.0 mi NNE 8.1 mph - N/A   Scattered Clouds
10:15 PM 62.6 °F 53.6 °F 72% 29.83 in 10.0 mi NNE 8.1 mph - N/A   Mostly Cloudy
10:35 PM 60.8 °F 53.6 °F 77% 29.83 in 10.0 mi NNE 8.1 mph - N/A   Mostly Cloudy
10:55 PM 62.6 °F 53.6 °F 72% 29.83 in 10.0 mi NNE 6.9 mph - N/A   Mostly Cloudy
11:15 PM 62.6 °F 53.6 °F 72% 29.83 in 10.0 mi North 8.1 mph - N/A   Overcast
11:35 PM 62.6 °F 51.8 °F 68% 29.84 in 10.0 mi NNE 8.1 mph - N/A   Overcast
11:55 PM 62.6 °F 51.8 °F 68% 29.85 in 10.0 mi NNE 6.9 mph - N/A   Overcast